sat.trackr.live / text

‹ back to catalog

STARLINK-31562

NORAD 59340 · 2024-057W

PAYLOAD ACTIVE UNKNOWN

§ Identity

Operator
Country
US
Launch date
2024-03-25
Launch site
AFETR
Launch vehicle
Mass (kg)
RCS (m²)

Purposes: comms

External: N2YO · Heavens-Above · Gunter

§ Orbital elements

Epoch: 2026-05-24T23:31:34.101120Z

Period
94.27 min
Inclination
43.0007°
Eccentricity
0.0001043
Mean motion
15.27572987 rev/d
Perigee alt
482.4 km
Apogee alt
483.8 km
Semi-major
6,861.2 km
B*
2.0608e-5
RAAN
131.2077°
Arg perigee
269.1446°
Mean anomaly
90.9286°
Rev number
12,133

§ Raw data

STARLINK-315621 59340U 24057W   26144.98025580  .00000305  00000+0  20608-4 0  99902 59340  43.0007 131.2077 0001043 269.1446  90.9286 15.27572987121335

JSON: /api/v1/satellites/59340 · /tle

For live sub-satellite position, see the globe view (requires WebGL).

§ Visibility from observer

Set your observer location to see the next 7 days of passes ≥ 10°. The values pass through the URL so the page stays shareable.

No JS? Fill the form by hand. The geolocation button needs JavaScript.